#timestamp,LO_Frequency,Hit,StdDev 
1547859615.5,286047005.9,Y
1547859635.3,286047002.7,P
1547859655.2,286047001.0,N
1547859675.9,286047001.3,N
1547859695.7,286047004.1,Y
1547859715.6,286047002.6,P
1547859735.4,286047004.2,P
1547859755.2,286047002.5,N
1547859775.1,286047004.1,Y
1547859776.0,286047004.1,P
1547859795.8,286047002.0,N
1547859815.7,286047000.7,N
1547859835.5,286047000.7,N
1547859855.3,286046998.8,N
1547859875.2,286046997.9,N
1547859895.0,286046999.1,N
1547859895.9,286046999.1,N
1547859915.8,286046997.7,N
1547859935.6,286046995.1,N
1547859955.4,286046995.3,N
1547859975.3,286046997.8,N
1547859995.1,286046996.6,N
1547860015.8,286047001.2,N
1547860035.7,286047001.2,N
1547860055.5,286046996.7,N
1547860075.4,286046996.9,N
1547860095.2,286046998.8,N
1547860115.0,286046998.5,N
1547860115.9,286046998.5,N
1547860135.8,286046995.4,N
1547860155.6,286046993.3,N
1547860175.5,286046995.7,N
1547860195.3,286046997.6,N
1547860215.1,286046996.1,N
1547860235.9,286046997.4,N
1547860255.7,286046996.8,N
1547860275.5,286046997.3,N
1547860295.4,286046995.8,N
1547860315.2,286046994.3,N
1547860335.1,286046994.4,N
1547860336.0,286046994.4,N
1547860355.8,286046996.0,N
1547860375.6,286046995.3,N
1547860395.5,286046997.2,N
1547860415.3,286046995.0,N
1547860435.1,286046996.5,N
1547860455.9,286046998.4,N
1547860475.7,286046999.5,N
1547860495.6,286046996.5,N
1547860515.4,286046998.3,N
1547860535.2,286047001.1,N
1547860555.1,286046996.6,N
1547860556.0,286046996.6,N
1547860575.8,286046996.8,N
1547860595.7,286047000.3,N
1547860615.5,286046999.6,N
1547860635.3,286046996.8,N
1547860655.2,286046997.5,N
1547860675.0,286046999.4,N
1547860675.9,286046999.4,N
1547860695.7,286046999.1,N
1547860715.6,286046998.6,N
1547860735.4,286046999.2,N
1547860755.3,286046999.4,N
1547860775.1,286046997.9,N
1547860776.0,286046997.9,N
1547860795.8,286046996.1,N
1547860815.7,286046996.0,N
1547860835.5,286046996.4,N
1547860855.4,286046993.5,Y
1547860875.2,286046996.9,P
1547860895.0,286046996.7,P
1547860895.9,286046996.7,P
1547860915.8,286046998.3,Y
1547860935.6,286047002.5,P
1547860955.4,286047001.5,N
1547860975.3,286047002.6,N
1547860995.1,286047001.5,N
1547861015.9,286047002.2,N
1547861035.7,286047002.0,N
1547861055.5,286047005.6,Y
1547861075.4,286047004.1,P
1547861095.2,286047004.0,N
1547861115.1,286047002.3,N
1547861116.0,286047002.3,N
1547861135.8,286047003.7,Y
1547861155.6,286046999.8,P
1547861175.5,286047002.8,N
1547861195.3,286047000.0,N
1547861215.1,286047001.6,N
1547861235.9,286047000.5,N
1547861255.7,286046998.5,N
1547861275.6,286046998.6,N
1547861295.4,286046998.4,N
1547861315.2,286046999.3,N
1547861335.1,286046996.2,N
1547861336.0,286046996.2,N
1547861355.8,286046995.6,N
1547861375.7,286046997.6,N
1547861395.5,286047001.0,N
1547861415.3,286047002.0,N
1547861435.2,286047000.6,N
1547861455.0,286046999.4,N
1547861455.9,286046999.4,N
1547861475.7,286046999.6,N
1547861495.6,286047000.9,N
1547861515.4,286047000.8,N
1547861535.3,286046998.1,N
1547861555.1,286046997.1,N
1547861575.8,286046998.4,N
1547861595.7,286046996.6,N
1547861615.5,286046998.5,N
1547861635.4,286046999.1,N
1547861655.2,286046995.3,N
1547861675.0,286046993.8,Y
1547861675.9,286046993.8,P
1547861695.8,286046995.3,N
1547861715.6,286046996.8,N
1547861735.4,286046997.2,N
1547861755.3,286046998.9,N
1547861775.1,286046998.1,N
1547861795.9,286046998.2,N
1547861815.7,286047001.1,N
1547861835.5,286046997.8,N
1547861855.4,286046996.8,N
1547861875.2,286046997.9,N
1547861895.1,286046993.3,Y
1547861896.0,286046993.3,P
1547861915.8,286046996.7,N
1547861935.6,286046997.1,N
1547861955.5,286046998.2,N
1547861975.3,286046998.2,N
1547861995.2,286047001.9,N
1547862015.9,286047000.0,N
1547862035.7,286047001.1,N
1547862055.6,286046996.5,N
1547862075.4,286046998.1,N
1547862095.2,286047000.0,N
1547862115.1,286047000.8,N
1547862116.0,286047000.8,N
1547862135.8,286047000.9,N
1547862155.7,286047001.1,N
1547862175.5,286046996.6,N
1547862195.3,286046994.9,N
1547862215.2,286046995.8,N
1547862235.0,286046996.3,N
1547862235.9,286046996.3,N
1547862255.8,286046997.1,N
1547862275.6,286046997.7,N
1547862295.4,286046996.9,N
1547862315.3,286046996.9,N
1547862335.1,286046996.6,N
1547862355.8,286047002.5,N
1547862375.7,286047001.2,N
1547862395.5,286047002.5,N
1547862415.4,286047001.5,N
1547862435.2,286047000.5,N
1547862455.0,286046998.5,N
1547862455.9,286046998.5,N
1547862475.8,286046998.5,N
1547862495.6,286046997.0,N
1547862515.5,286046999.3,N
1547862535.3,286046996.9,N
1547862555.1,286046997.8,N
1547862575.9,286046997.6,N
1547862595.7,286046997.6,N
1547862615.5,286046997.5,N
1547862635.4,286046996.6,N
1547862655.2,286046995.3,N
1547862675.1,286046997.5,N
1547862676.0,286046997.5,N
1547862695.8,286046998.8,N
1547862715.6,286047000.2,N
1547862735.5,286047001.1,N
1547862755.3,286046998.5,N
1547862775.1,286046999.6,N
1547862795.9,286046999.6,N
1547862815.7,286046998.9,N
1547862835.6,286046998.6,N
1547862855.4,286047003.6,N
1547862875.2,286047004.3,N
1547862895.1,286047001.6,N
1547862896.0,286047001.6,N
1547862915.8,286047001.6,N
1547862935.7,286047003.9,N
1547862955.5,286047003.9,N
1547862975.3,286047000.4,N
1547862995.2,286046998.4,N
1547863015.0,286046999.0,N
1547863015.9,286046999.0,N
1547863035.7,286047000.5,N
1547863055.6,286046999.7,N
1547863075.4,286046999.7,N
1547863095.3,286046999.8,N
1547863115.1,286047000.0,N
1547863116.0,286047000.0,N
1547863135.8,286047001.2,N
1547863155.7,286046999.5,N
1547863175.5,286046999.0,N
1547863195.3,286047001.1,N
